Year,Month,Day,Hour,Minute,Value (Times are PST for windgust in km/hr)
2005,07,30,00,00,6.40
2005,07,30,00,01,4.80
2005,07,30,00,02,4.80
2005,07,30,00,03,3.20
2005,07,30,00,04,8.10
2005,07,30,00,05,4.80
2005,07,30,00,06,4.80
2005,07,30,00,07,3.20
2005,07,30,00,08,1.60
2005,07,30,00,09,1.60
2005,07,30,00,10,1.60
2005,07,30,00,11,1.60
2005,07,30,00,12,3.20
2005,07,30,00,13,3.20
2005,07,30,00,14,4.80
2005,07,30,00,15,1.60
2005,07,30,00,16,1.60
2005,07,30,00,17,9.60
2005,07,30,00,18,6.40
2005,07,30,00,19,6.40
2005,07,30,00,20,1.60
2005,07,30,00,21,0.00
2005,07,30,00,22,3.20
2005,07,30,00,23,6.40
2005,07,30,00,24,3.20
2005,07,30,00,25,8.10
2005,07,30,00,26,11.30
2005,07,30,00,27,11.30
2005,07,30,00,28,8.10
2005,07,30,00,29,6.40
2005,07,30,00,30,8.10
2005,07,30,00,31,6.40
2005,07,30,00,32,11.30
2005,07,30,00,33,11.30
2005,07,30,00,34,16.10
2005,07,30,00,35,9.60
2005,07,30,00,36,11.30
2005,07,30,00,37,16.10
2005,07,30,00,38,9.60
2005,07,30,00,39,11.30
2005,07,30,00,40,8.10
2005,07,30,00,41,6.40
2005,07,30,00,42,9.60
2005,07,30,00,43,12.90
2005,07,30,00,44,8.10
2005,07,30,00,45,4.80
2005,07,30,00,46,9.60
2005,07,30,00,47,9.60
2005,07,30,00,48,6.40
2005,07,30,00,49,8.10
2005,07,30,00,50,6.40
2005,07,30,00,51,9.60
2005,07,30,00,52,12.90
2005,07,30,00,53,11.30
2005,07,30,00,54,9.60
2005,07,30,00,55,6.40
2005,07,30,00,56,6.40
2005,07,30,00,57,6.40
2005,07,30,00,58,3.20
2005,07,30,00,59,4.80
2005,07,30,01,00,6.40
2005,07,30,01,01,8.10
2005,07,30,01,02,4.80
2005,07,30,01,03,6.40
2005,07,30,01,04,4.80
2005,07,30,01,05,4.80
2005,07,30,01,06,8.10
2005,07,30,01,07,8.10
2005,07,30,01,08,4.80
2005,07,30,01,09,4.80
2005,07,30,01,10,3.20
2005,07,30,01,11,1.60
2005,07,30,01,12,4.80
2005,07,30,01,13,4.80
2005,07,30,01,14,6.40
2005,07,30,01,15,6.40
2005,07,30,01,16,6.40
2005,07,30,01,17,11.30
2005,07,30,01,18,11.30
2005,07,30,01,19,14.50
2005,07,30,01,20,16.10
2005,07,30,01,21,9.60
2005,07,30,01,22,8.10
2005,07,30,01,23,4.80
2005,07,30,01,24,4.80
2005,07,30,01,25,8.10
2005,07,30,01,26,6.40
2005,07,30,01,27,8.10
2005,07,30,01,28,8.10
2005,07,30,01,29,6.40
2005,07,30,01,30,1.60
2005,07,30,01,31,1.60
2005,07,30,01,32,4.80
2005,07,30,01,33,4.80
2005,07,30,01,34,9.60
2005,07,30,01,35,6.40
2005,07,30,01,36,3.20
2005,07,30,01,37,4.80
2005,07,30,01,38,4.80
2005,07,30,01,39,4.80
2005,07,30,01,40,1.60
2005,07,30,01,41,1.60
2005,07,30,01,42,0.00
2005,07,30,01,43,1.60
2005,07,30,01,44,0.00
2005,07,30,01,45,3.20
2005,07,30,01,46,0.00
2005,07,30,01,47,0.00
2005,07,30,01,48,0.00
2005,07,30,01,49,0.00
2005,07,30,01,50,1.60
2005,07,30,01,51,6.40
2005,07,30,01,52,4.80
2005,07,30,01,53,4.80
2005,07,30,01,54,3.20
2005,07,30,01,55,4.80
2005,07,30,01,56,4.80
2005,07,30,01,57,1.60
2005,07,30,01,58,9.60
2005,07,30,01,59,4.80
2005,07,30,02,00,3.20
2005,07,30,02,01,6.40
2005,07,30,02,02,8.10
2005,07,30,02,03,3.20
2005,07,30,02,04,6.40
2005,07,30,02,05,4.80
2005,07,30,02,06,4.80
2005,07,30,02,07,3.20
2005,07,30,02,08,4.80
2005,07,30,02,09,3.20
2005,07,30,02,10,4.80
2005,07,30,02,11,3.20
2005,07,30,02,12,3.20
2005,07,30,02,13,1.60
2005,07,30,02,14,3.20
2005,07,30,02,15,1.60
2005,07,30,02,16,1.60
2005,07,30,02,17,0.00
2005,07,30,02,18,0.00
2005,07,30,02,19,1.60
2005,07,30,02,20,1.60
2005,07,30,02,21,1.60
2005,07,30,02,22,1.60
2005,07,30,02,23,1.60
2005,07,30,02,24,1.60
2005,07,30,02,25,1.60
2005,07,30,02,26,4.80
2005,07,30,02,27,3.20
2005,07,30,02,28,3.20
2005,07,30,02,29,3.20
2005,07,30,02,30,3.20
2005,07,30,02,31,1.60
2005,07,30,02,32,3.20
2005,07,30,02,33,1.60
2005,07,30,02,34,1.60
2005,07,30,02,35,3.20
2005,07,30,02,36,0.00
2005,07,30,02,37,1.60
2005,07,30,02,38,3.20
2005,07,30,02,39,3.20
2005,07,30,02,40,0.00
2005,07,30,02,41,1.60
2005,07,30,02,42,0.00
2005,07,30,02,43,0.00
2005,07,30,02,44,0.00
2005,07,30,02,45,0.00
2005,07,30,02,46,1.60
2005,07,30,02,47,1.60
2005,07,30,02,48,1.60
2005,07,30,02,49,1.60
2005,07,30,02,50,1.60
2005,07,30,02,51,0.00
2005,07,30,02,52,1.60
2005,07,30,02,53,1.60
2005,07,30,02,54,3.20
2005,07,30,02,55,4.80
2005,07,30,02,56,1.60
2005,07,30,02,57,1.60
2005,07,30,02,58,0.00
2005,07,30,02,59,1.60
2005,07,30,03,00,0.00
2005,07,30,03,01,0.00
2005,07,30,03,02,1.60
2005,07,30,03,03,3.20
2005,07,30,03,04,3.20
2005,07,30,03,05,1.60
2005,07,30,03,06,3.20
2005,07,30,03,07,4.80
2005,07,30,03,08,4.80
2005,07,30,03,09,3.20
2005,07,30,03,10,3.20
2005,07,30,03,11,4.80
2005,07,30,03,12,6.40
2005,07,30,03,13,4.80
2005,07,30,03,14,4.80
2005,07,30,03,15,4.80
2005,07,30,03,16,3.20
2005,07,30,03,17,3.20
2005,07,30,03,18,3.20
2005,07,30,03,19,1.60
2005,07,30,03,20,3.20
2005,07,30,03,21,3.20
2005,07,30,03,22,0.00
2005,07,30,03,23,1.60
2005,07,30,03,24,1.60
2005,07,30,03,25,0.00
2005,07,30,03,26,0.00
2005,07,30,03,27,0.00
2005,07,30,03,28,1.60
2005,07,30,03,29,1.60
2005,07,30,03,30,0.00
2005,07,30,03,31,1.60
2005,07,30,03,32,1.60
2005,07,30,03,33,1.60
2005,07,30,03,34,1.60
2005,07,30,03,35,0.00
2005,07,30,03,36,0.00
2005,07,30,03,37,0.00
2005,07,30,03,38,0.00
2005,07,30,03,39,0.00
2005,07,30,03,40,0.00
2005,07,30,03,41,0.00
2005,07,30,03,42,0.00
2005,07,30,03,43,0.00
2005,07,30,03,44,0.00
2005,07,30,03,45,0.00
2005,07,30,03,46,0.00
2005,07,30,03,47,0.00
2005,07,30,03,48,0.00
2005,07,30,03,49,0.00
2005,07,30,03,50,1.60
2005,07,30,03,51,0.00
2005,07,30,03,52,1.60
2005,07,30,03,53,1.60
2005,07,30,03,54,0.00
2005,07,30,03,55,0.00
2005,07,30,03,56,0.00
2005,07,30,03,57,0.00
2005,07,30,03,58,0.00
2005,07,30,03,59,0.00
2005,07,30,04,00,0.00
2005,07,30,04,01,0.00
2005,07,30,04,02,0.00
2005,07,30,04,03,0.00
2005,07,30,04,04,0.00
2005,07,30,04,05,0.00
2005,07,30,04,06,1.60
2005,07,30,04,07,3.20
2005,07,30,04,08,3.20
2005,07,30,04,09,3.20
2005,07,30,04,10,3.20
2005,07,30,04,11,1.60
2005,07,30,04,12,3.20
2005,07,30,04,13,1.60
2005,07,30,04,14,3.20
2005,07,30,04,15,3.20
2005,07,30,04,16,4.80
2005,07,30,04,17,3.20
2005,07,30,04,18,1.60
2005,07,30,04,19,1.60
2005,07,30,04,20,0.00
2005,07,30,04,21,0.00
2005,07,30,04,22,0.00
2005,07,30,04,23,0.00
2005,07,30,04,24,0.00
2005,07,30,04,25,0.00
2005,07,30,04,26,0.00
2005,07,30,04,27,0.00
2005,07,30,04,28,0.00
2005,07,30,04,29,0.00
2005,07,30,04,30,0.00
2005,07,30,04,31,0.00
2005,07,30,04,32,0.00
2005,07,30,04,33,0.00
2005,07,30,04,34,0.00
2005,07,30,04,35,0.00
2005,07,30,04,36,0.00
2005,07,30,04,37,1.60
2005,07,30,04,38,0.00
2005,07,30,04,39,0.00
2005,07,30,04,40,0.00
2005,07,30,04,41,1.60
2005,07,30,04,42,0.00
2005,07,30,04,43,0.00
2005,07,30,04,44,0.00
2005,07,30,04,45,0.00
2005,07,30,04,46,0.00
2005,07,30,04,47,0.00
2005,07,30,04,48,0.00
2005,07,30,04,49,0.00
2005,07,30,04,50,0.00
2005,07,30,04,51,0.00
2005,07,30,04,52,0.00
2005,07,30,04,53,0.00
2005,07,30,04,54,0.00
2005,07,30,04,55,0.00
2005,07,30,04,56,0.00
2005,07,30,04,57,0.00
2005,07,30,04,58,0.00
2005,07,30,04,59,0.00
2005,07,30,05,00,0.00
2005,07,30,05,01,0.00
2005,07,30,05,02,0.00
2005,07,30,05,03,0.00
2005,07,30,05,04,0.00
2005,07,30,05,05,0.00
2005,07,30,05,06,0.00
2005,07,30,05,07,0.00
2005,07,30,05,08,1.60
2005,07,30,05,09,3.20
2005,07,30,05,10,1.60
2005,07,30,05,11,0.00
2005,07,30,05,12,1.60
2005,07,30,05,13,0.00
2005,07,30,05,14,0.00
2005,07,30,05,15,1.60
2005,07,30,05,16,1.60
2005,07,30,05,17,0.00
2005,07,30,05,18,0.00
2005,07,30,05,19,1.60
2005,07,30,05,20,1.60
2005,07,30,05,21,1.60
2005,07,30,05,22,1.60
2005,07,30,05,23,4.80
2005,07,30,05,24,3.20
2005,07,30,05,25,3.20
2005,07,30,05,26,1.60
2005,07,30,05,27,1.60
2005,07,30,05,28,0.00
2005,07,30,05,29,0.00
2005,07,30,05,30,0.00
2005,07,30,05,31,0.00
2005,07,30,05,32,1.60
2005,07,30,05,33,1.60
2005,07,30,05,34,0.00
2005,07,30,05,35,0.00
2005,07,30,05,36,0.00
2005,07,30,05,37,0.00
2005,07,30,05,38,0.00
2005,07,30,05,39,0.00
2005,07,30,05,40,0.00
2005,07,30,05,41,0.00
2005,07,30,05,42,0.00
2005,07,30,05,43,0.00
2005,07,30,05,44,0.00
2005,07,30,05,45,0.00
2005,07,30,05,46,1.60
2005,07,30,05,47,0.00
2005,07,30,05,48,0.00
2005,07,30,05,49,0.00
2005,07,30,05,50,0.00
2005,07,30,05,51,0.00
2005,07,30,05,52,0.00
2005,07,30,05,53,0.00
2005,07,30,05,54,0.00
2005,07,30,05,55,0.00
2005,07,30,05,56,0.00
2005,07,30,05,57,0.00
2005,07,30,05,58,0.00
2005,07,30,05,59,1.60
2005,07,30,06,00,1.60
2005,07,30,06,01,1.60
2005,07,30,06,02,1.60
2005,07,30,06,03,1.60
2005,07,30,06,04,1.60
2005,07,30,06,05,1.60
2005,07,30,06,06,1.60
2005,07,30,06,07,1.60
2005,07,30,06,08,1.60
2005,07,30,06,09,1.60
2005,07,30,06,10,0.00
2005,07,30,06,11,0.00
2005,07,30,06,12,0.00
2005,07,30,06,13,0.00
2005,07,30,06,14,0.00
2005,07,30,06,15,0.00
2005,07,30,06,16,0.00
2005,07,30,06,17,0.00
2005,07,30,06,18,0.00
2005,07,30,06,19,0.00
2005,07,30,06,20,0.00
2005,07,30,06,21,0.00
2005,07,30,06,22,0.00
2005,07,30,06,23,0.00
2005,07,30,06,24,0.00
2005,07,30,06,25,0.00
2005,07,30,06,26,0.00
2005,07,30,06,27,0.00
2005,07,30,06,28,0.00
2005,07,30,06,29,0.00
2005,07,30,06,30,0.00
2005,07,30,06,31,0.00
2005,07,30,06,32,0.00
2005,07,30,06,33,0.00
2005,07,30,06,34,0.00
2005,07,30,06,35,0.00
2005,07,30,06,36,0.00
2005,07,30,06,37,1.60
2005,07,30,06,38,1.60
2005,07,30,06,39,1.60
2005,07,30,06,40,1.60
2005,07,30,06,41,1.60
2005,07,30,06,42,0.00
2005,07,30,06,43,0.00
2005,07,30,06,44,1.60
2005,07,30,06,45,1.60
2005,07,30,06,46,3.20
2005,07,30,06,47,1.60
2005,07,30,06,48,1.60
2005,07,30,06,49,1.60
2005,07,30,06,50,1.60
2005,07,30,06,51,0.00
2005,07,30,06,52,0.00
2005,07,30,06,53,0.00
2005,07,30,06,54,0.00
2005,07,30,06,55,0.00
2005,07,30,06,56,0.00
2005,07,30,06,57,1.60
2005,07,30,06,58,1.60
2005,07,30,06,59,0.00
2005,07,30,07,00,1.60
2005,07,30,07,01,1.60
2005,07,30,07,02,1.60
2005,07,30,07,03,3.20
2005,07,30,07,04,1.60
2005,07,30,07,05,1.60
2005,07,30,07,06,1.60
2005,07,30,07,07,0.00
2005,07,30,07,08,1.60
2005,07,30,07,09,0.00
2005,07,30,07,10,0.00
2005,07,30,07,11,1.60
2005,07,30,07,12,0.00
2005,07,30,07,13,0.00
2005,07,30,07,14,1.60
2005,07,30,07,15,0.00
2005,07,30,07,16,1.60
2005,07,30,07,17,0.00
2005,07,30,07,18,0.00
2005,07,30,07,19,0.00
2005,07,30,07,20,0.00
2005,07,30,07,21,1.60
2005,07,30,07,22,0.00
2005,07,30,07,23,0.00
2005,07,30,07,24,0.00
2005,07,30,07,25,1.60
2005,07,30,07,26,3.20
2005,07,30,07,27,3.20
2005,07,30,07,28,3.20
2005,07,30,07,29,1.60
2005,07,30,07,30,1.60
2005,07,30,07,31,1.60
2005,07,30,07,32,0.00
2005,07,30,07,33,0.00
2005,07,30,07,34,0.00
2005,07,30,07,35,1.60
2005,07,30,07,36,1.60
2005,07,30,07,37,1.60
2005,07,30,07,38,1.60
2005,07,30,07,39,0.00
2005,07,30,07,40,0.00
2005,07,30,07,41,1.60
2005,07,30,07,42,1.60
2005,07,30,07,43,3.20
2005,07,30,07,44,3.20
2005,07,30,07,45,3.20
2005,07,30,07,46,4.80
2005,07,30,07,47,3.20
2005,07,30,07,48,1.60
2005,07,30,07,49,3.20
2005,07,30,07,50,1.60
2005,07,30,07,51,1.60
2005,07,30,07,52,1.60
2005,07,30,07,53,0.00
2005,07,30,07,54,1.60
2005,07,30,07,55,3.20
2005,07,30,07,56,4.80
2005,07,30,07,57,4.80
2005,07,30,07,58,3.20
2005,07,30,07,59,4.80
2005,07,30,08,00,4.80
2005,07,30,08,01,3.20
2005,07,30,08,02,3.20
2005,07,30,08,03,4.80
2005,07,30,08,04,4.80
2005,07,30,08,05,3.20
2005,07,30,08,06,1.60
2005,07,30,08,07,1.60
2005,07,30,08,08,1.60
2005,07,30,08,09,1.60
2005,07,30,08,10,3.20
2005,07,30,08,11,3.20
2005,07,30,08,12,4.80
2005,07,30,08,13,4.80
2005,07,30,08,14,3.20
2005,07,30,08,15,3.20
2005,07,30,08,16,1.60
2005,07,30,08,17,1.60
2005,07,30,08,18,1.60
2005,07,30,08,19,3.20
2005,07,30,08,20,3.20
2005,07,30,08,21,3.20
2005,07,30,08,22,3.20
2005,07,30,08,23,3.20
2005,07,30,08,24,4.80
2005,07,30,08,25,6.40
2005,07,30,08,26,6.40
2005,07,30,08,27,6.40
2005,07,30,08,28,4.80
2005,07,30,08,29,6.40
2005,07,30,08,30,4.80
2005,07,30,08,31,6.40
2005,07,30,08,32,6.40
2005,07,30,08,33,6.40
2005,07,30,08,34,4.80
2005,07,30,08,35,6.40
2005,07,30,08,36,6.40
2005,07,30,08,37,4.80
2005,07,30,08,38,6.40
2005,07,30,08,39,6.40
2005,07,30,08,40,6.40
2005,07,30,08,41,6.40
2005,07,30,08,42,6.40
2005,07,30,08,43,6.40
2005,07,30,08,44,4.80
2005,07,30,08,45,6.40
2005,07,30,08,46,8.10
2005,07,30,08,47,4.80
2005,07,30,08,48,6.40
2005,07,30,08,49,4.80
2005,07,30,08,50,6.40
2005,07,30,08,51,8.10
2005,07,30,08,52,6.40
2005,07,30,08,53,4.80
2005,07,30,08,54,6.40
2005,07,30,08,55,6.40
2005,07,30,08,56,6.40
2005,07,30,08,57,6.40
2005,07,30,08,58,4.80
2005,07,30,08,59,6.40
2005,07,30,09,00,6.40
2005,07,30,09,01,6.40
2005,07,30,09,02,6.40
2005,07,30,09,03,6.40
2005,07,30,09,04,6.40
2005,07,30,09,05,8.10
2005,07,30,09,06,8.10
2005,07,30,09,07,8.10
2005,07,30,09,08,6.40
2005,07,30,09,09,8.10
2005,07,30,09,10,6.40
2005,07,30,09,11,8.10
2005,07,30,09,12,8.10
2005,07,30,09,13,6.40
2005,07,30,09,14,8.10
2005,07,30,09,15,8.10
2005,07,30,09,16,8.10
2005,07,30,09,17,8.10
2005,07,30,09,18,8.10
2005,07,30,09,19,9.60
2005,07,30,09,20,8.10
2005,07,30,09,21,8.10
2005,07,30,09,22,8.10
2005,07,30,09,23,8.10
2005,07,30,09,24,8.10
2005,07,30,09,25,4.80
2005,07,30,09,26,6.40
2005,07,30,09,27,8.10
2005,07,30,09,28,9.60
2005,07,30,09,29,8.10
2005,07,30,09,30,9.60
2005,07,30,09,31,8.10
2005,07,30,09,32,6.40
2005,07,30,09,33,8.10
2005,07,30,09,34,6.40
2005,07,30,09,35,8.10
2005,07,30,09,36,11.30
2005,07,30,09,37,9.60
2005,07,30,09,38,9.60
2005,07,30,09,39,14.50
2005,07,30,09,40,9.60
2005,07,30,09,41,9.60
2005,07,30,09,42,9.60
2005,07,30,09,43,6.40
2005,07,30,09,44,8.10
2005,07,30,09,45,4.80
2005,07,30,09,46,8.10
2005,07,30,09,47,4.80
2005,07,30,09,48,6.40
2005,07,30,09,49,6.40
2005,07,30,09,50,8.10
2005,07,30,09,51,6.40
2005,07,30,09,52,6.40
2005,07,30,09,53,8.10
2005,07,30,09,54,6.40
2005,07,30,09,55,4.80
2005,07,30,09,56,8.10
2005,07,30,09,57,4.80
2005,07,30,09,58,6.40
2005,07,30,09,59,8.10
2005,07,30,10,00,8.10
2005,07,30,10,01,8.10
2005,07,30,10,02,8.10
2005,07,30,10,03,6.40
2005,07,30,10,04,6.40
2005,07,30,10,05,6.40
2005,07,30,10,06,4.80
2005,07,30,10,07,4.80
2005,07,30,10,08,4.80
2005,07,30,10,09,4.80
2005,07,30,10,10,3.20
2005,07,30,10,11,4.80
2005,07,30,10,12,6.40
2005,07,30,10,13,6.40
2005,07,30,10,14,6.40
2005,07,30,10,15,8.10
2005,07,30,10,16,6.40
2005,07,30,10,17,8.10
2005,07,30,10,18,6.40
2005,07,30,10,19,8.10
2005,07,30,10,20,6.40
2005,07,30,10,21,6.40
2005,07,30,10,22,4.80
2005,07,30,10,23,6.40
2005,07,30,10,24,8.10
2005,07,30,10,25,6.40
2005,07,30,10,26,6.40
2005,07,30,10,27,3.20
2005,07,30,10,28,6.40
2005,07,30,10,29,4.80
2005,07,30,10,30,6.40
2005,07,30,10,31,8.10
2005,07,30,10,32,4.80
2005,07,30,10,33,6.40
2005,07,30,10,34,6.40
2005,07,30,10,35,8.10
2005,07,30,10,36,4.80
2005,07,30,10,37,4.80
2005,07,30,10,38,6.40
2005,07,30,10,39,6.40
2005,07,30,10,40,6.40
2005,07,30,10,41,8.10
2005,07,30,10,42,6.40
2005,07,30,10,43,8.10
2005,07,30,10,44,8.10
2005,07,30,10,45,8.10
2005,07,30,10,46,8.10
2005,07,30,10,47,9.60
2005,07,30,10,48,8.10
2005,07,30,10,49,6.40
2005,07,30,10,50,8.10
2005,07,30,10,51,8.10
2005,07,30,10,52,6.40
2005,07,30,10,53,9.60
2005,07,30,10,54,8.10
2005,07,30,10,55,8.10
2005,07,30,10,56,6.40
2005,07,30,10,57,9.60
2005,07,30,10,58,11.30
2005,07,30,10,59,11.30
2005,07,30,11,00,9.60
2005,07,30,11,01,8.10
2005,07,30,11,02,8.10
2005,07,30,11,03,9.60
2005,07,30,11,04,9.60
2005,07,30,11,05,9.60
2005,07,30,11,06,9.60
2005,07,30,11,07,9.60
2005,07,30,11,08,9.60
2005,07,30,11,09,9.60
2005,07,30,11,10,9.60
2005,07,30,11,11,9.60
2005,07,30,11,12,8.10
2005,07,30,11,13,9.60
2005,07,30,11,14,9.60
2005,07,30,11,15,9.60
2005,07,30,11,16,11.30
2005,07,30,11,17,12.90
2005,07,30,11,18,11.30
2005,07,30,11,19,11.30
2005,07,30,11,20,11.30
2005,07,30,11,21,8.10
2005,07,30,11,22,8.10
2005,07,30,11,23,6.40
2005,07,30,11,24,8.10
2005,07,30,11,25,9.60
2005,07,30,11,26,8.10
2005,07,30,11,27,9.60
2005,07,30,11,28,12.90
2005,07,30,11,29,8.10
2005,07,30,11,30,8.10
2005,07,30,11,31,9.60
2005,07,30,11,32,9.60
2005,07,30,11,33,9.60
2005,07,30,11,34,8.10
2005,07,30,11,35,6.40
2005,07,30,11,36,8.10
2005,07,30,11,37,8.10
2005,07,30,11,38,8.10
2005,07,30,11,39,9.60
2005,07,30,11,40,8.10
2005,07,30,11,41,9.60
2005,07,30,11,42,8.10
2005,07,30,11,43,9.60
2005,07,30,11,44,9.60
2005,07,30,11,45,9.60
2005,07,30,11,46,8.10
2005,07,30,11,47,8.10
2005,07,30,11,48,8.10
2005,07,30,11,49,8.10
2005,07,30,11,50,9.60
2005,07,30,11,51,9.60
2005,07,30,11,52,8.10
2005,07,30,11,53,8.10
2005,07,30,11,54,11.30
2005,07,30,11,55,11.30
2005,07,30,11,56,9.60
2005,07,30,11,57,9.60
2005,07,30,11,58,8.10
2005,07,30,11,59,11.30
2005,07,30,12,00,11.30
2005,07,30,12,01,8.10
2005,07,30,12,02,9.60
2005,07,30,12,03,9.60
2005,07,30,12,04,9.60
2005,07,30,12,05,9.60
2005,07,30,12,06,9.60
2005,07,30,12,07,9.60
2005,07,30,12,08,11.30
2005,07,30,12,09,9.60
2005,07,30,12,10,8.10
2005,07,30,12,11,6.40
2005,07,30,12,12,9.60
2005,07,30,12,13,8.10
2005,07,30,12,14,8.10
2005,07,30,12,15,6.40
2005,07,30,12,16,11.30
2005,07,30,12,17,11.30
2005,07,30,12,18,8.10
2005,07,30,12,19,9.60
2005,07,30,12,20,9.60
2005,07,30,12,21,14.50
2005,07,30,12,22,9.60
2005,07,30,12,23,8.10
2005,07,30,12,24,11.30
2005,07,30,12,25,11.30
2005,07,30,12,26,8.10
2005,07,30,12,27,8.10
2005,07,30,12,28,9.60
2005,07,30,12,29,8.10
2005,07,30,12,30,12.90
2005,07,30,12,31,14.50
2005,07,30,12,32,9.60
2005,07,30,12,33,9.60
2005,07,30,12,34,11.30
2005,07,30,12,35,14.50
2005,07,30,12,36,9.60
2005,07,30,12,37,11.30
2005,07,30,12,38,9.60
2005,07,30,12,39,9.60
2005,07,30,12,40,8.10
2005,07,30,12,41,12.90
2005,07,30,12,42,11.30
2005,07,30,12,43,9.60
2005,07,30,12,44,9.60
2005,07,30,12,45,11.30
2005,07,30,12,46,14.50
2005,07,30,12,47,9.60
2005,07,30,12,48,14.50
2005,07,30,12,49,8.10
2005,07,30,12,50,9.60
2005,07,30,12,51,11.30
2005,07,30,12,52,11.30
2005,07,30,12,53,9.60
2005,07,30,12,54,9.60
2005,07,30,12,55,9.60
2005,07,30,12,56,9.60
2005,07,30,12,57,11.30
2005,07,30,12,58,9.60
2005,07,30,12,59,8.10
2005,07,30,13,00,8.10
2005,07,30,13,01,8.10
2005,07,30,13,02,11.30
2005,07,30,13,03,11.30
2005,07,30,13,04,11.30
2005,07,30,13,05,16.10
2005,07,30,13,06,9.60
2005,07,30,13,07,8.10
2005,07,30,13,08,8.10
2005,07,30,13,09,6.40
2005,07,30,13,10,14.50
2005,07,30,13,11,12.90
2005,07,30,13,12,11.30
2005,07,30,13,13,9.60
2005,07,30,13,14,16.10
2005,07,30,13,15,16.10
2005,07,30,13,16,9.60
2005,07,30,13,17,11.30
2005,07,30,13,18,11.30
2005,07,30,13,19,11.30
2005,07,30,13,20,9.60
2005,07,30,13,21,9.60
2005,07,30,13,22,12.90
2005,07,30,13,23,11.30
2005,07,30,13,24,11.30
2005,07,30,13,25,9.60
2005,07,30,13,26,11.30
2005,07,30,13,27,11.30
2005,07,30,13,28,12.90
2005,07,30,13,29,11.30
2005,07,30,13,30,11.30
2005,07,30,13,31,9.60
2005,07,30,13,32,8.10
2005,07,30,13,33,6.40
2005,07,30,13,34,9.60
2005,07,30,13,35,11.30
2005,07,30,13,36,14.50
2005,07,30,13,37,12.90
2005,07,30,13,38,11.30
2005,07,30,13,39,11.30
2005,07,30,13,40,11.30
2005,07,30,13,41,12.90
2005,07,30,13,42,11.30
2005,07,30,13,43,9.60
2005,07,30,13,44,11.30
2005,07,30,13,45,8.10
2005,07,30,13,46,9.60
2005,07,30,13,47,11.30
2005,07,30,13,48,9.60
2005,07,30,13,49,9.60
2005,07,30,13,50,9.60
2005,07,30,13,51,11.30
2005,07,30,13,52,9.60
2005,07,30,13,53,11.30
2005,07,30,13,54,9.60
2005,07,30,13,55,9.60
2005,07,30,13,56,14.50
2005,07,30,13,57,9.60
2005,07,30,13,58,11.30
2005,07,30,13,59,11.30
2005,07,30,14,00,9.60
2005,07,30,14,01,6.40
2005,07,30,14,02,8.10
2005,07,30,14,03,11.30
2005,07,30,14,04,14.50
2005,07,30,14,05,11.30
2005,07,30,14,06,14.50
2005,07,30,14,07,16.10
2005,07,30,14,08,11.30
2005,07,30,14,09,11.30
2005,07,30,14,10,11.30
2005,07,30,14,11,14.50
2005,07,30,14,12,16.10
2005,07,30,14,13,17.70
2005,07,30,14,14,14.50
2005,07,30,14,15,9.60
2005,07,30,14,16,14.50
2005,07,30,14,17,16.10
2005,07,30,14,18,11.30
2005,07,30,14,19,11.30
2005,07,30,14,20,11.30
2005,07,30,14,21,11.30
2005,07,30,14,22,12.90
2005,07,30,14,23,11.30
2005,07,30,14,24,11.30
2005,07,30,14,25,9.60
2005,07,30,14,26,11.30
2005,07,30,14,27,9.60
2005,07,30,14,28,9.60
2005,07,30,14,29,8.10
2005,07,30,14,30,9.60
2005,07,30,14,31,12.90
2005,07,30,14,32,16.10
2005,07,30,14,33,12.90
2005,07,30,14,34,16.10
2005,07,30,14,35,11.30
2005,07,30,14,36,11.30
2005,07,30,14,37,14.50
2005,07,30,14,38,14.50
2005,07,30,14,39,16.10
2005,07,30,14,40,14.50
2005,07,30,14,41,11.30
2005,07,30,14,42,17.70
2005,07,30,14,43,14.50
2005,07,30,14,44,11.30
2005,07,30,14,45,12.90
2005,07,30,14,46,19.30
2005,07,30,14,47,12.90
2005,07,30,14,48,16.10
2005,07,30,14,49,14.50
2005,07,30,14,50,17.70
2005,07,30,14,51,16.10
2005,07,30,14,52,14.50
2005,07,30,14,53,14.50
2005,07,30,14,54,16.10
2005,07,30,14,55,16.10
2005,07,30,14,56,16.10
2005,07,30,14,57,12.90
2005,07,30,14,58,9.60
2005,07,30,14,59,14.50
2005,07,30,15,00,9.60
2005,07,30,15,01,11.30
2005,07,30,15,02,11.30
2005,07,30,15,03,12.90
2005,07,30,15,04,14.50
2005,07,30,15,05,11.30
2005,07,30,15,06,17.70
2005,07,30,15,07,16.10
2005,07,30,15,08,11.30
2005,07,30,15,09,20.90
2005,07,30,15,10,14.50
2005,07,30,15,11,16.10
2005,07,30,15,12,14.50
2005,07,30,15,13,17.70
2005,07,30,15,14,16.10
2005,07,30,15,15,16.10
2005,07,30,15,16,8.10
2005,07,30,15,17,17.70
2005,07,30,15,18,16.10
2005,07,30,15,19,19.30
2005,07,30,15,20,17.70
2005,07,30,15,21,11.30
2005,07,30,15,22,16.10
2005,07,30,15,23,19.30
2005,07,30,15,24,19.30
2005,07,30,15,25,17.70
2005,07,30,15,26,14.50
2005,07,30,15,27,12.90
2005,07,30,15,28,9.60
2005,07,30,15,29,11.30
2005,07,30,15,30,12.90
2005,07,30,15,31,12.90
2005,07,30,15,32,17.70
2005,07,30,15,33,12.90
2005,07,30,15,34,17.70
2005,07,30,15,35,12.90
2005,07,30,15,36,20.90
2005,07,30,15,37,19.30
2005,07,30,15,38,17.70
2005,07,30,15,39,12.90
2005,07,30,15,40,17.70
2005,07,30,15,41,17.70
2005,07,30,15,42,12.90
2005,07,30,15,43,17.70
2005,07,30,15,44,11.30
2005,07,30,15,45,16.10
2005,07,30,15,46,22.50
2005,07,30,15,47,11.30
2005,07,30,15,48,19.30
2005,07,30,15,49,19.30
2005,07,30,15,50,16.10
2005,07,30,15,51,11.30
2005,07,30,15,52,17.70
2005,07,30,15,53,19.30
2005,07,30,15,54,20.90
2005,07,30,15,55,19.30
2005,07,30,15,56,19.30
2005,07,30,15,57,22.50
2005,07,30,15,58,25.70
2005,07,30,15,59,20.90
2005,07,30,16,00,19.30
2005,07,30,16,01,22.50
2005,07,30,16,02,16.10
2005,07,30,16,03,14.50
2005,07,30,16,04,11.30
2005,07,30,16,05,11.30
2005,07,30,16,06,19.30
2005,07,30,16,07,19.30
2005,07,30,16,08,16.10
2005,07,30,16,09,17.70
2005,07,30,16,10,12.90
2005,07,30,16,11,16.10
2005,07,30,16,12,11.30
2005,07,30,16,13,12.90
2005,07,30,16,14,11.30
2005,07,30,16,15,11.30
2005,07,30,16,16,17.70
2005,07,30,16,17,17.70
2005,07,30,16,18,16.10
2005,07,30,16,19,20.90
2005,07,30,16,20,14.50
2005,07,30,16,21,14.50
2005,07,30,16,22,8.10
2005,07,30,16,23,4.80
2005,07,30,16,24,6.40
2005,07,30,16,25,4.80
2005,07,30,16,26,6.40
2005,07,30,16,27,8.10
2005,07,30,16,28,6.40
2005,07,30,16,29,8.10
2005,07,30,16,30,9.60
2005,07,30,16,31,14.50
2005,07,30,16,32,11.30
2005,07,30,16,33,11.30
2005,07,30,16,34,11.30
2005,07,30,16,35,9.60
2005,07,30,16,36,8.10
2005,07,30,16,37,9.60
2005,07,30,16,38,6.40
2005,07,30,16,39,6.40
2005,07,30,16,40,6.40
2005,07,30,16,41,9.60
2005,07,30,16,42,16.10
2005,07,30,16,43,4.80
2005,07,30,16,44,17.70
2005,07,30,16,45,9.60
2005,07,30,16,46,9.60
2005,07,30,16,47,14.50
2005,07,30,16,48,9.60
2005,07,30,16,49,14.50
2005,07,30,16,50,19.30
2005,07,30,16,51,9.60
2005,07,30,16,52,14.50
2005,07,30,16,53,14.50
2005,07,30,16,54,11.30
2005,07,30,16,55,9.60
2005,07,30,16,56,11.30
2005,07,30,16,57,9.60
2005,07,30,16,58,4.80
2005,07,30,16,59,16.10
2005,07,30,17,00,17.70
2005,07,30,17,01,17.70
2005,07,30,17,02,16.10
2005,07,30,17,03,14.50
2005,07,30,17,04,11.30
2005,07,30,17,05,16.10
2005,07,30,17,06,19.30
2005,07,30,17,07,16.10
2005,07,30,17,08,14.50
2005,07,30,17,09,16.10
2005,07,30,17,10,11.30
2005,07,30,17,11,11.30
2005,07,30,17,12,11.30
2005,07,30,17,13,16.10
2005,07,30,17,14,19.30
2005,07,30,17,15,9.60
2005,07,30,17,16,12.90
2005,07,30,17,17,8.10
2005,07,30,17,18,16.10
2005,07,30,17,19,11.30
2005,07,30,17,20,16.10
2005,07,30,17,21,8.10
2005,07,30,17,22,6.40
2005,07,30,17,23,19.30
2005,07,30,17,24,11.30
2005,07,30,17,25,6.40
2005,07,30,17,26,9.60
2005,07,30,17,27,6.40
2005,07,30,17,28,11.30
2005,07,30,17,29,16.10
2005,07,30,17,30,11.30
2005,07,30,17,31,9.60
2005,07,30,17,32,9.60
2005,07,30,17,33,11.30
2005,07,30,17,34,12.90
2005,07,30,17,35,6.40
2005,07,30,17,36,11.30
2005,07,30,17,37,4.80
2005,07,30,17,38,9.60
2005,07,30,17,39,16.10
2005,07,30,17,40,19.30
2005,07,30,17,41,8.10
2005,07,30,17,42,8.10
2005,07,30,17,43,8.10
2005,07,30,17,44,9.60
2005,07,30,17,45,11.30
2005,07,30,17,46,8.10
2005,07,30,17,47,12.90
2005,07,30,17,48,8.10
2005,07,30,17,49,11.30
2005,07,30,17,50,11.30
2005,07,30,17,51,8.10
2005,07,30,17,52,9.60
2005,07,30,17,53,11.30
2005,07,30,17,54,11.30